Tracking 29932 objects as of 3-Dec-2024
HD Live streaming from Space Station
objects crossing your sky now

SL-12 R/B(AUX MOTOR)

Track SL-12 R/B(AUX MOTOR) now!
10-day predictions


NORAD ID: 28632
Int'l Code: 2005-010D
Perigee: 281.0 km
Apogee: 12,359.9 km
Inclination: 47.3 °
Period: 237.2 minutes
Semi major axis: 12691 km
RCS: 0.5024 m2 (medium)
Launch date: March 29, 2005
Source: Commonwealth of Independent States (former USSR) (CIS)
Launch site: TYURATAM MISSILE AND SPACE COMPLEX (TTMTR)

Note: This is a ROCKET BODY
Your satellite tracking list
Your tracking list is empty




NASA's NSSDC Master Catalog

Two Line Element Set (TLE):
1 28632U 05010D   24338.41394871  .00043941  00000-0  38970-2 0  9994
2 28632  47.3287 308.8268 4758673 344.7175   4.7798  6.07204648323268
Source of the keplerian elements: AFSPC